DW1347 Weather Reports


Display with metric or nautical units.
time (UTC)temp
F
wind
direction
speed
MPH
gust
MPH
rain 1hr
in
rain 24hr
in
rain mn
in
humidity
%
barometer
mb
20210917171449 53 45 2.0 3.0 0.00 0.00 0.00 63 1034.7
20210917170948 53 321 5.0 6.0 0.00 0.00 0.00 64 1034.3
20210917170447 53 249 1.0 2.0 0.00 0.00 0.00 64 1034.6
20210917165945 51 310 3.0 5.0 0.00 0.00 0.00 67 1034.6
20210917165444 51 294 3.0 3.0 0.00 0.00 0.00 68 1034.6
20210917164942 49 280 3.0 3.0 0.00 0.00 0.00 70 1034.7
20210917164441 50 4 3.0 5.0 0.00 0.00 0.00 70 1034.7
20210917163940 49 47 5.0 7.0 0.00 0.00 0.00 71 1035.0
20210917163437 49 39 3.0 3.0 0.00 0.00 0.00 72 1035.0
20210917162936 48 234 1.0 1.0 0.00 0.00 0.00 73 1034.8
20210917162434 48 11 3.0 5.0 0.00 0.00 0.00 75 1034.7
20210917161933 48 29 0.0 0.0 0.00 0.00 0.00 75 1034.7
20210917161432 46 31 4.0 5.0 0.00 0.00 0.00 77 1034.7
20210917160931 46 347 4.0 5.0 0.00 0.00 0.00 76 1035.0
20210917160430 46 325 3.0 3.0 0.00 0.00 0.00 77 1034.8
20210917155926 46 35 1.0 2.0 0.00 0.00 0.00 77 1035.0
20210917155425 45 38 2.0 3.0 0.00 0.00 0.00 78 1035.1
20210917154924 45 36 2.0 3.0 0.00 0.00 0.00 79 1035.1
20210917154423 44 332 2.0 2.0 0.00 0.00 0.00 80 1035.0
20210917153923 43 31 2.0 2.0 0.00 0.00 0.00 82 1035.1
20210917153421 43 23 1.0 2.0 0.00 0.00 0.00 82 1035.2
20210917152918 43 237 2.0 2.0 0.00 0.00 0.00 83 1035.2
20210917152417 43 341 2.0 3.0 0.00 0.00 0.00 84 1035.0
20210917151915 42 354 2.0 2.0 0.00 0.00 0.00 86 1034.7
20210917151413 42 331 2.0 2.0 0.00 0.00 0.00 86 1035.1
20210917150912 42 290 1.0 1.0 0.00 0.00 0.00 86 1035.2
20210917150411 41 255 1.0 1.0 0.00 0.00 0.00 87 1035.3
20210917145907 41 325 2.0 2.0 0.00 0.00 0.00 87 1035.2
20210917145407 41 233 0.0 0.0 0.00 0.00 0.00 88 1035.2
20210917144903 40 272 1.0 1.0 0.00 0.00 0.00 90 1035.2
20210917144401 40 222 1.0 1.0 0.00 0.00 0.00 91 1035.1
20210917143900 41 47 2.0 2.0 0.00 0.00 0.00 89 1035.2
20210917143358 40 241 0.0 1.0 0.00 0.00 0.00 89 1035.2
20210917142856 40 313 1.0 1.0 0.00 0.00 0.00 88 1035.2
20210917142354 40 244 1.0 1.0 0.00 0.00 0.00 89 1035.2
20210917141852 40 242 0.0 0.0 0.00 0.00 0.00 88 1035.3
20210917141351 39 259 0.0 0.0 0.00 0.00 0.00 89 1035.1
20210917140848 40 246 0.0 0.0 0.00 0.00 0.00 89 1035.1
20210917140348 39 352 1.0 2.0 0.00 0.00 0.00 89 1035.1
20210917135846 39 264 1.0 1.0 0.00 0.00 0.00 89 1035.1
20210917135345 39 316 2.0 2.0 0.00 0.00 0.00 90 1035.1
20210917134843 39 282 0.0 1.0 0.00 0.00 0.00 90 1034.8
20210917134340 39 307 1.0 1.0 0.00 0.00 0.00 90 1035.1
20210917133838 39 245 1.0 1.0 0.00 0.00 0.00 91 1035.1
20210917133336 38 303 1.0 1.0 0.00 0.00 0.00 91 1035.0
20210917132834 38 12 2.0 2.0 0.00 0.00 0.00 91 1034.7
20210917132332 38 241 0.0 1.0 0.00 0.00 0.00 91 1035.0
20210917131832 38 207 0.0 1.0 0.00 0.00 0.00 92 1035.0
20210917131331 38 254 0.0 0.0 0.00 0.00 0.00 92 1034.8
20210917130828 38 260 0.0 0.0 0.00 0.00 0.00 92 1034.6
20210917130327 37 293 1.0 1.0 0.00 0.00 0.00 92 1034.7
20210917125825 37 237 0.0 0.0 0.00 0.00 0.00 92 1034.6
20210917125325 38 246 0.0 0.0 0.00 0.00 0.00 91 1034.3
20210917124824 38 233 0.0 0.0 0.00 0.00 0.00 92 1034.5
20210917124322 38 223 0.0 1.0 0.00 0.00 0.00 91 1034.3
20210917123822 38 239 0.0 0.0 0.00 0.00 0.00 91 1034.2
20210917123320 39 279 0.0 1.0 0.00 0.00 0.00 91 1033.9
20210917122816 39 78 2.0 2.0 0.00 0.00 0.00 91 1034.3
20210917122316 39 242 0.0 0.0 0.00 0.00 0.00 90 1033.7
20210917121814 39 228 0.0 0.0 0.00 0.00 0.00 90 1034.1
20210917121313 39 229 1.0 1.0 0.00 0.00 0.00 90 1033.7
20210917120812 39 250 1.0 1.0 0.00 0.00 0.00 89 1033.8
20210917120310 40 195 1.0 1.0 0.00 0.00 0.00 89 1033.8
20210917115810 40 204 2.0 2.0 0.00 0.00 0.00 89 1033.6
20210917115307 41 7 3.0 3.0 0.00 0.00 0.00 89 1033.7
20210917114806 41 250 1.0 2.0 0.00 0.00 0.00 89 1033.4
20210917114303 41 246 1.0 1.0 0.00 0.00 0.00 90 1033.3
20210917113803 40 274 1.0 1.0 0.00 0.00 0.00 89 1033.6
20210917113258 40 220 1.0 1.0 0.00 0.00 0.00 89 1033.3
20210917112757 40 262 0.0 0.0 0.00 0.00 0.00 88 1033.1
20210917112255 40 214 1.0 1.0 0.00 0.00 0.00 88 1033.4
20210917111754 41 235 0.0 0.0 0.00 0.00 0.00 88 1033.1
20210917111251 41 236 0.0 0.0 0.00 0.00 0.00 86 1033.1
20210917110751 41 236 0.0 0.0 0.00 0.00 0.00 86 1033.3
20210917110249 41 219 1.0 1.0 0.00 0.00 0.00 86 1033.2
20210917105748 41 240 1.0 1.0 0.00 0.00 0.00 85 1032.9
20210917105244 41 191 1.0 2.0 0.00 0.00 0.00 85 1032.9
20210917104742 41 244 0.0 0.0 0.00 0.00 0.00 84 1033.1
20210917104242 42 236 0.0 0.0 0.00 0.00 0.00 85 1033.2
20210917103740 42 224 0.0 0.0 0.00 0.00 0.00 84 1033.1
20210917103238 42 242 0.0 0.0 0.00 0.00 0.00 82 1032.9
20210917102738 43 234 0.0 1.0 0.00 0.00 0.00 81 1032.7
20210917102237 44 253 0.0 0.0 0.00 0.00 0.00 80 1032.8
20210917101737 44 215 1.0 1.0 0.00 0.00 0.00 80 1032.8
20210917101237 44 228 0.0 1.0 0.00 0.00 0.00 79 1032.7
20210917100736 45 232 0.0 0.0 0.00 0.00 0.00 80 1032.7
20210917100235 46 230 0.0 1.0 0.00 0.00 0.00 80 1032.7
20210917095735 46 243 0.0 0.0 0.00 0.00 0.00 78 1032.7
20210917095233 46 231 0.0 1.0 0.00 0.00 0.00 78 1032.6
20210917094731 45 227 1.0 1.0 0.00 0.00 0.00 78 1032.4
20210917094230 45 229 0.0 0.0 0.00 0.00 0.00 75 1032.6
20210917093729 46 235 1.0 2.0 0.00 0.00 0.00 75 1032.2
20210917093229 46 227 0.0 1.0 0.00 0.00 0.00 74 1032.1
20210917092728 46 242 0.0 1.0 0.00 0.00 0.00 74 1032.3
20210917092226 47 262 0.0 0.0 0.00 0.00 0.00 73 1032.2
20210917091725 47 225 1.0 1.0 0.00 0.00 0.00 72 1032.1
20210917091223 48 235 0.0 0.0 0.00 0.00 0.00 69 1031.7
20210917090722 48 192 0.0 1.0 0.00 0.00 0.00 70 1031.7
20210917090221 47 227 0.0 0.0 0.00 0.00 0.00 67 1031.8
20210917085719 48 245 0.0 1.0 0.00 0.00 0.00 67 1031.7
20210917085218 48 234 0.0 1.0 0.00 0.00 0.00 66 1031.8
20210917084716 49 189 1.0 1.0 0.00 0.00 0.00 64 1031.9
20210917084214 49 238 3.0 3.0 0.00 0.00 0.00 65 1031.5
20210917083714 49 193 2.0 2.0 0.00 0.00 0.00 64 1031.4
20210917083213 50 208 1.0 1.0 0.00 0.00 0.00 63 1031.4
20210917082712 51 238 1.0 1.0 0.00 0.00 0.00 62 1031.2
20210917082211 51 64 2.0 2.0 0.00 0.00 0.00 62 1031.2
20210917081709 52 212 1.0 1.0 0.00 0.00 0.00 59 1030.9
20210917081208 53 218 1.0 1.0 0.00 0.00 0.00 59 1031.0
20210917080706 53 230 0.0 0.0 0.00 0.00 0.00 58 1031.2
20210917080204 53 213 1.0 1.0 0.00 0.00 0.00 58 1030.5
20210917075703 54 181 3.0 3.0 0.00 0.00 0.00 57 1030.9
20210917075203 54 182 4.0 7.0 0.00 0.00 0.00 56 1030.8
20210917074702 55 353 3.0 5.0 0.00 0.00 0.00 54 1030.8
20210917074201 55 217 2.0 3.0 0.00 0.00 0.00 53 1030.4
20210917073659 55 62 3.0 6.0 0.00 0.00 0.00 49 1030.2
20210917073157 55 307 2.0 6.0 0.00 0.00 0.00 40 1030.5
20210917072655 55 177 3.0 5.0 0.00 0.00 0.00 39 1029.9
20210917072153 54 194 1.0 2.0 0.00 0.00 0.00 36 1029.4
20210917071652 52 185 1.0 2.0 0.00 0.00 0.00 38 1029.1
20210917071151 51 154 1.0 1.0 0.00 0.00 0.00 39 1028.8
20210917070649 52 36 2.0 2.0 0.00 0.00 0.00 38 1028.3
20210917070149 52 325 1.0 1.0 0.00 0.00 0.00 38 1027.6
20210917065647 52 258 0.0 0.0 0.00 0.00 0.00 38 1028.0
20210917065146 51 223 0.0 0.0 0.00 0.00 0.00 38 1027.8
20210917064643 52 214 1.0 1.0 0.00 0.00 0.00 38 1027.9
20210917064141 52 245 1.0 1.0 0.00 0.00 0.00 38 1027.6
20210917063640 52 213 1.0 1.0 0.00 0.00 0.00 37 1027.5
20210917063135 53 229 0.0 1.0 0.00 0.00 0.00 36 1027.6
20210917062630 53 216 1.0 1.0 0.00 0.00 0.00 36 1027.5
20210917062129 53 206 1.0 1.0 0.00 0.00 0.00 35 1027.4
20210917061628 53 223 0.0 1.0 0.00 0.00 0.00 35 1026.9
20210917061128 53 159 2.0 2.0 0.00 0.00 0.00 35 1027.4
20210917060628 52 221 1.0 1.0 0.00 0.00 0.00 35 1027.1
20210917060125 53 237 1.0 1.0 0.00 0.00 0.00 35 1027.0
20210917055624 52 182 1.0 2.0 0.00 0.00 0.00 35 1026.9
20210917055123 53 210 1.0 1.0 0.00 0.00 0.00 35 1026.8
20210917054619 52 184 2.0 2.0 0.00 0.00 0.00 35 1026.9
20210917054118 53 236 0.0 0.0 0.00 0.00 0.00 35 1026.9
20210917053616 53 209 1.0 1.0 0.00 0.00 0.00 34 1026.8
20210917053116 53 208 1.0 1.0 0.00 0.00 0.00 35 1026.9
20210917052613 52 116 2.0 2.0 0.00 0.00 0.00 35 1026.5
20210917052112 52 242 0.0 0.0 0.00 0.00 0.00 35 1026.6
20210917051607 53 225 1.0 2.0 0.00 0.00 0.00 34 1026.6
20210917051106 53 240 1.0 1.0 0.00 0.00 0.00 35 1026.6
20210917050605 53 187 1.0 2.0 0.00 0.00 0.00 34 1026.4
20210917050104 53 254 1.0 1.0 0.00 0.00 0.00 34 1026.2
20210917045603 53 228 0.0 0.0 0.00 0.00 0.00 34 1026.4
20210917045102 54 241 0.0 0.0 0.00 0.00 0.00 34 1026.1
20210917044600 54 179 2.0 2.0 0.00 0.00 0.00 32 1026.4
20210917044059 54 164 2.0 2.0 0.00 0.00 0.00 33 1026.2
20210917043558 54 211 2.0 2.0 0.00 0.00 0.00 34 1026.1
20210917043057 54 230 0.0 0.0 0.00 0.00 0.00 33 1026.0
20210917042556 54 241 1.0 1.0 0.00 0.00 0.00 33 1026.4
20210917042056 54 246 1.0 1.0 0.00 0.00 0.00 34 1026.0
20210917041552 55 253 1.0 1.0 0.00 0.00 0.00 33 1026.1
20210917041052 54 190 1.0 2.0 0.00 0.00 0.00 32 1026.0
20210917040550 53 203 2.0 2.0 0.00 0.00 0.00 34 1026.0
20210917040048 54 231 0.0 0.0 0.00 0.00 0.00 34 1025.9
20210917035547 54 205 1.0 1.0 0.00 0.00 0.00 34 1025.9
20210917035046 54 226 0.0 0.0 0.00 0.00 0.00 34 1025.9
20210917034544 55 231 0.0 0.0 0.00 0.00 0.00 33 1026.0
20210917034043 55 193 1.0 1.0 0.00 0.00 0.00 33 1025.9
20210917033542 55 218 1.0 1.0 0.00 0.00 0.00 33 1025.9
20210917033041 55 227 0.0 0.0 0.00 0.00 0.00 33 1026.0
20210917032540 56 215 0.0 0.0 0.00 0.00 0.00 32 1025.7
20210917032038 56 242 0.0 0.0 0.00 0.00 0.00 33 1025.7
20210917031536 58 249 0.0 0.0 0.00 0.00 0.00 30 1025.7
20210917031034 57 199 1.0 2.0 0.00 0.00 0.00 30 1025.4
20210917030533 57 243 0.0 1.0 0.00 0.00 0.00 31 1025.4
20210917030031 57 191 2.0 2.0 0.00 0.00 0.00 30 1025.4
20210917025530 57 236 0.0 0.0 0.00 0.00 0.00 31 1025.5
20210917025027 57 225 0.0 0.0 0.00 0.00 0.00 30 1025.2
20210917024527 58 227 0.0 0.0 0.00 0.00 0.00 29 1025.4
20210917024026 59 215 1.0 1.0 0.00 0.00 0.00 29 1025.2
20210917023525 59 228 0.0 0.0 0.00 0.00 0.00 29 1025.2
20210917023023 59 216 1.0 1.0 0.00 0.00 0.00 30 1025.1
20210917022523 60 234 0.0 0.0 0.00 0.00 0.00 29 1024.9
20210917022022 60 221 1.0 1.0 0.00 0.00 0.00 28 1025.1
20210917021520 61 203 1.0 1.0 0.00 0.00 0.00 30 1024.7
20210917021017 62 236 0.0 1.0 0.00 0.00 0.00 26 1024.7
20210917020517 62 203 1.0 1.0 0.00 0.00 0.00 28 1024.6
20210917020016 63 208 1.0 1.0 0.00 0.00 0.00 28 1024.4
20210917015513 63 229 0.0 0.0 0.00 0.00 0.00 26 1024.5
20210917015012 64 225 0.0 0.0 0.00 0.00 0.00 28 1024.2
20210917014453 65 208 1.0 1.0 0.00 0.00 0.00 25 1024.2
20210917013953 66 219 0.0 0.0 0.00 0.00 0.00 25 1024.6
20210917013453 65 178 2.0 2.0 0.00 0.00 0.00 24 1024.1
20210917012948 65 239 1.0 1.0 0.00 0.00 0.00 26 1023.8
20210917012447 66 210 1.0 1.0 0.00 0.00 0.00 26 1023.8
20210917011946 67 225 0.0 0.0 0.00 0.00 0.00 25 1023.8
20210917011445 67 227 0.0 0.0 0.00 0.00 0.00 25 1023.7
20210917010945 68 235 0.0 0.0 0.00 0.00 0.00 26 1023.3
20210917010442 69 227 0.0 0.0 0.00 0.00 0.00 26 1023.6
20210917005942 71 239 0.0 0.0 0.00 0.00 0.00 24 1023.5
20210917005440 71 214 1.0 1.0 0.00 0.00 0.00 23 1023.3
20210917004940 72 236 1.0 1.0 0.00 0.00 0.00 23 1023.3
20210917004439 73 238 0.0 0.0 0.00 0.00 0.00 23 1023.6
20210917003938 74 208 1.0 2.0 0.00 0.00 0.00 21 1023.5
20210917003437 74 241 1.0 1.0 0.00 0.00 0.00 21 1023.5
20210917002936 75 240 2.0 2.0 0.00 0.00 0.00 20 1023.2
20210917002434 75 243 2.0 2.0 0.00 0.00 0.00 20 1023.0
20210917001930 76 258 2.0 2.0 0.00 0.00 0.00 21 1023.1
20210917001429 76 244 1.0 1.0 0.00 0.00 0.00 23 1023.2
20210917000927 76 262 2.0 2.0 0.00 0.00 0.00 19 1023.0
20210917000426 77 304 1.0 1.0 0.00 0.00 0.00 19 1023.0
20210916235924 77 241 2.0 2.0 0.00 0.00 0.00 19 1023.0
20210916235424 77 287 3.0 3.0 0.00 0.00 0.00 19 1023.0
20210916234923 78 14 2.0 2.0 0.00 0.00 0.00 18 1022.6
20210916234421 78 254 3.0 3.0 0.00 0.00 0.00 18 1022.5
20210916233920 78 255 2.0 2.0 0.00 0.00 0.00 18 1022.7
20210916233418 78 200 1.0 1.0 0.00 0.00 0.00 19 1022.6
20210916232917 77 249 1.0 2.0 0.00 0.00 0.00 19 1022.3
20210916232416 78 334 3.0 3.0 0.00 0.00 0.00 19 1022.6
20210916231915 77 304 4.0 5.0 0.00 0.00 0.00 18 1022.6
20210916231413 77 315 3.0 3.0 0.00 0.00 0.00 18 1022.5
20210916230911 77 223 0.0 0.0 0.00 0.00 0.00 18 1022.3
20210916230412 78 347 2.0 2.0 0.00 0.00 0.00 18 1022.5
20210916225910 78 308 1.0 2.0 0.00 0.00 0.00 18 1022.2
20210916225410 77 25 5.0 8.0 0.00 0.00 0.00 18 1022.2
20210916224908 77 303 3.0 3.0 0.00 0.00 0.00 18 1022.1
20210916224406 76 284 0.0 0.0 0.00 0.00 0.00 19 1022.2
20210916223905 76 157 1.0 2.0 0.00 0.00 0.00 19 1022.3
20210916223403 76 308 3.0 3.0 0.00 0.00 0.00 18 1022.2
20210916222902 76 191 4.0 5.0 0.00 0.00 0.00 18 1022.0
20210916222401 77 329 3.0 3.0 0.00 0.00 0.00 18 1022.0
20210916221900 77 237 1.0 1.0 0.00 0.00 0.00 19 1022.1
20210916221359 77 309 2.0 3.0 0.00 0.00 0.00 18 1022.2
20210916220856 77 1 6.0 8.0 0.00 0.00 0.00 18 1022.2
20210916220354 78 218 5.0 8.0 0.00 0.00 0.00 17 1022.2
20210916215852 77 17 7.0 9.0 0.00 0.00 0.00 18 1021.7
20210916215350 77 237 0.0 1.0 0.00 0.00 0.00 18 1022.1
20210916214848 77 359 4.0 7.0 0.00 0.00 0.00 18 1022.0
20210916214347 79 30 13.0 16.0 0.00 0.00 0.00 17 1022.2
20210916213841 80 112 3.0 3.0 0.00 0.00 0.00 17 1022.1
20210916213339 79 0 4.0 6.0 0.00 0.00 0.00 17 1022.0
20210916212837 78 6 6.0 8.0 0.00 0.00 0.00 17 1022.2
20210916212337 79 240 5.0 6.0 0.00 0.00 0.00 18 1021.7
20210916211836 77 348 1.0 1.0 0.00 0.00 0.00 17 1022.0
20210916211332 77 350 4.0 5.0 0.00 0.00 0.00 17 1021.7
20210916210831 78 184 1.0 2.0 0.00 0.00 0.00 17 1022.1
20210916210326 78 199 1.0 2.0 0.00 0.00 0.00 17 1021.7
20210916205825 79 223 0.0 1.0 0.00 0.00 0.00 17 1021.8
20210916205325 80 158 4.0 6.0 0.00 0.00 0.00 17 1021.8
20210916204824 78 165 4.0 5.0 0.00 0.00 0.00 17 1022.0
20210916204322 79 174 1.0 2.0 0.00 0.00 0.00 17 1022.1
20210916203820 79 260 3.0 5.0 0.00 0.00 0.00 16 1022.2
20210916203320 80 247 4.0 9.0 0.00 0.00 0.00 16 1021.8
20210916202819 79 220 2.0 2.0 0.00 0.00 0.00 16 1022.1
20210916202317 79 251 4.0 6.0 0.00 0.00 0.00 16 1022.3
20210916201816 80 274 3.0 3.0 0.00 0.00 0.00 15 1022.0
20210916201315 82 158 3.0 3.0 0.00 0.00 0.00 14 1022.0
20210916200814 81 340 3.0 3.0 0.00 0.00 0.00 15 1021.8
20210916200312 82 106 8.0 10.0 0.00 0.00 0.00 15 1022.3
20210916195812 82 207 3.0 3.0 0.00 0.00 0.00 15 1022.2
20210916195311 82 242 4.0 6.0 0.00 0.00 0.00 15 1022.3
20210916194810 82 259 4.0 5.0 0.00 0.00 0.00 16 1022.5
20210916194307 81 219 5.0 7.0 0.00 0.00 0.00 15 1022.0
20210916193806 80 142 3.0 5.0 0.00 0.00 0.00 16 1022.5
20210916193306 81 250 4.0 6.0 0.00 0.00 0.00 16 1022.6
20210916192804 80 239 0.0 1.0 0.00 0.00 0.00 16 1022.5
20210916192301 80 330 6.0 7.0 0.00 0.00 0.00 16 1022.3
20210916191800 80 239 5.0 7.0 0.00 0.00 0.00 15 1023.0
20210916191257 80 187 5.0 6.0 0.00 0.00 0.00 15 1022.8
20210916190756 80 229 0.0 1.0 0.00 0.00 0.00 16 1023.0
20210916190253 80 242 2.0 2.0 0.00 0.00 0.00 17 1023.0
20210916185750 80 222 4.0 6.0 0.00 0.00 0.00 15 1022.8
20210916185248 80 215 5.0 7.0 0.00 0.00 0.00 16 1023.1
20210916184744 79 150 3.0 5.0 0.00 0.00 0.00 16 1023.1
20210916184244 79 14 3.0 6.0 0.00 0.00 0.00 15 1023.2
20210916183744 79 231 4.0 6.0 0.00 0.00 0.00 15 1023.2
20210916183237 79 217 2.0 2.0 0.00 0.00 0.00 16 1023.2
20210916182736 79 259 2.0 3.0 0.00 0.00 0.00 15 1023.1
20210916182233 80 277 4.0 6.0 0.00 0.00 0.00 15 1023.3
20210916181733 80 268 3.0 3.0 0.00 0.00 0.00 16 1023.6
20210916181230 80 223 2.0 2.0 0.00 0.00 0.00 17 1023.1
20210916180729 78 224 3.0 5.0 0.00 0.00 0.00 16 1023.6
20210916180229 80 228 1.0 2.0 0.00 0.00 0.00 17 1023.6
20210916175727 79 309 6.0 6.0 0.00 0.00 0.00 17 1023.7
20210916175222 78 227 5.0 8.0 0.00 0.00 0.00 17 1023.7
20210916174722 78 235 2.0 3.0 0.00 0.00 0.00 16 1023.6
20210916174221 78 245 3.0 3.0 0.00 0.00 0.00 17 1023.7
20210916173721 77 226 3.0 3.0 0.00 0.00 0.00 20 1024.1
20210916173220 77 263 3.0 3.0 0.00 0.00 0.00 16 1023.8
20210916172720 76 263 5.0 8.0 0.00 0.00 0.00 17 1024.2
20210916172218 76 223 5.0 5.0 0.00 0.00 0.00 18 1024.4
20210916171716 77 226 2.0 3.0 0.00 0.00 0.00 16 1024.7